SCP
0 0 0 0 0 0 0 0 0 0 0 0 0 0 0 0 0 0 0 0 0 0 0 0 1 1 1 0 0 0 0 0 1 1 1 1 1 1 1 1 1 1 1
0 0 0 0 0 0 0 0 0 0 0 0 0 0 0 0 0 0 0 0 0 0 0 0 1 1 1 1 1 0 0 0 1 1 1 1 1 1 1 1 1 1 1
0 0 0 0 0 0 0 0 0 0 0 0 0 0 0 0 0 0 0 0 0 0 0 0 1 1 1 1 1 1 1 1 1 1 1 1 1 1 1 1 1 1 1
0 0 0 0 0 0 0 0 0 0 0 0 0 0 0 0 0 0 0 0 0 0 0 1 1 1 1 1 1 1 1 1 1 1 1 1 1 1 1 1 1 1 1
0 0 0 0 0 0 0 0 0 0 0 0 0 0 0 0 0 0 0 0 0 0 0 1 1 1 1 1 1 1 1 1 1 1 1 1 1 1 1 1 1 1 1
0 0 0 0 0 0 0 0 0 0 0 0 0 0 0 0 0 0 0 0 0 0 0 0 1 1 1 1 1 1 1 1 1 1 1 0 1 1 1 1 1 1 1
0 0 0 0 0 0 0 0 0 0 0 0 0 0 0 0 0 0 0 0 0 0 0 0 0 0 0 1 1 1 1 1 1 1 1 0 0 1 1 1 1 1 1
0 0 0 0 0 0 0 0 0 0 0 0 0 0 0 0 0 0 0 0 0 0 0 0 0 0 0 0 0 0 0 0 1 1 1 0 0 1 1 1 1 0 0
0 0 0 0 0 0 0 0 0 0 0 0 0 0 0 0 0 0 0 0 0 0 0 0 0 0 0 0 0 0 0 0 1 1 1 0 0 1 1 1 1 1 0
0 0 0 0 0 0 0 0 0 0 0 0 0 0 0 0 0 0 0 0 0 0 0 0 0 0 0 0 0 0 0 0 0 1 1 0 0 1 1 1 1 1 0
0 0 0 0 0 0 0 0 0 0 0 0 0 0 0 0 0 0 0 0 0 0 0 0 0 0 0 0 0 0 0 0 0 0 0 0 0 0 1 1 1 1 0
0 0 0 0 0 0 0 0 0 0 0 0 0 0 0 0 0 0 0 0 0 0 0 0 0 0 0 0 0 0 0 0 0 0 0 0 0 0 0 1 1 0 0
0 0 0 0 0 0 0 0 0 0 0 0 0 0 0 0 0 0 0 0 0 0 0 0 0 0 0 0 0 0 0 0 0 0 0 0 0 0 0 0 0 0 0
0 0 0 0 0 0 0 0 0 0 0 0 0 0 0 0 0 0 0 0 0 0 0 0 0 0 0 0 0 0 0 0 0 0 0 0 0 0 0 0 0 0 0
0 0 0 0 0 0 0 0 0 0 0 0 0 0 0 0 0 0 0 0 0 0 0 0 0 0 0 0 0 0 0 0 0 0 0 0 0 0 0 0 0 0 0
0 0 0 0 0 0 0 0 0 0 0 0 0 0 0 0 0 0 0 0 0 0 0 0 0 0 0 0 0 0 0 0 0 0 0 0 0 0 0 0 0 0 0
0 0 0 0 0 0 0 0 0 0 0 0 0 0 0 0 0 0 0 0 0 0 0 0 0 0 0 0 0 0 0 0 0 0 0 0 0 0 0 0 0 0 0
0 0 0 0 0 0 0 0 0 0 0 0 0 0 0 0 0 0 0 0 0 0 0 0 0 0 0 0 0 0 0 0 0 0 0 0 0 0 0 0 0 0 0
0 0 0 0 0 0 0 0 0 0 0 0 0 0 0 0 0 0 0 0 0 0 0 0 0 0 0 0 0 0 0 0 0 0 0 0 0 0 0 0 0 0 0
0 0 0 0 0 0 0 0 0 0 0 0 0 0 0 0 0 0 0 0 0 0 0 0 0 0 0 0 0 0 0 0 0 0 0 0 0 0 0 0 0 0 0
0 0 0 0 0 0 0 0 0 0 0 0 0 0 0 0 0 0 0 0 0 0 0 0 0 0 0 0 0 0 0 0 0 0 0 0 0 0 0 0 0 0 0
0 0 0 0 0 0 0 0 0 0 0 0 0 0 0 0 0 0 0 0 0 0 0 0 0 0 0 0 0 0 0 0 0 0 0 0 0 0 0 0 0 0 0
0 0 0 0 0 0 0 0 0 0 0 0 0 0 0 0 0 0 0 0 0 0 0 0 0 0 0 0 0 0 0 0 0 0 0 0 0 0 0 0 0 0 0
0 0 0 0 0 0 0 0 0 0 0 0 0 0 0 0 0 0 0 0 0 0 0 0 0 0 0 0 0 0 0 0 0 0 0 0 0 0 0 0 0 0 0
0 0 0 0 0 0 0 0 0 0 0 0 0 0 0 0 0 0 0 0 0 0 0 0 0 0 0 0 0 0 0 0 0 0 0 0 0 0 0 0 0 0 0
0 0 0 0 0 0 0 0 0 0 0 0 0 0 0 0 0 0 0 0 0 0 0 0 0 0 0 0 0 0 0 0 0 0 0 0 0 0 0 0 0 0 0
Wind_Speed
2 2 1 2 2 2 3 3 3 4 4 4 4 4 3 3 3 3 3 6 7 7 7 8 8 8 8 8 8 8 8 9 9 9 8 8 7 6 6 6 6 6 6
3 2 2 2 2 2 3 3 3 4 3 3 4 4 3 3 3 3 3 4 7 7 7 8 8 7 8 8 8 9 9 10 9 9 9 9 8 7 6 7 7 7 7
3 3 3 2 2 3 4 4 4 3 4 4 4 4 3 3 3 3 3 2 3 6 7 8 8 8 8 9 9 9 10 10 10 10 10 9 9 8 8 8 7 7 7
4 4 3 3 2 3 3 3 3 4 3 3 3 3 3 3 3 3 3 3 2 3 5 9 9 9 9 9 10 10 10 11 11 11 11 10 10 9 9 9 8 8 8
4 4 3 3 3 3 3 3 3 3 3 3 3 3 3 2 2 3 3 3 3 3 3 6 9 10 10 10 10 10 11 11 11 11 11 11 10 10 9 9 9 8 8
4 4 3 3 3 3 3 3 3 2 2 2 3 4 3 3 3 3 3 3 3 4 4 4 4 6 10 10 10 10 11 11 11 11 11 11 10 10 9 9 9 8 8
3 3 3 3 3 3 3 3 3 3 2 2 3 3 3 4 4 3 3 3 4 4 4 4 4 4 4 9 10 10 10 10 10 11 11 11 11 10 10 9 9 8 8
3 4 4 3 3 3 3 3 3 2 1 1 2 2 2 4 4 4 2 3 3 3 4 4 4 4 3 3 6 10 10 9 9 10 10 10 10 10 9 9 9 9 9
2 3 3 3 3 3 3 3 3 3 2 0 1 3 3 1 1 3 3 3 3 3 2 3 3 3 3 3 3 6 9 9 9 9 9 9 9 9 9 9 9 9 9
2 2 3 3 3 2 3 2 3 2 3 1 0 1 2 4 3 1 3 3 3 3 2 2 2 2 2 2 4 6 8 8 8 8 8 8 9 9 9 9 9 9 9
1 2 3 3 3 2 2 2 2 2 2 2 1 1 2 2 2 3 0 2 3 3 2 1 1 1 2 2 2 4 7 7 7 8 8 9 8 8 8 8 9 9 9
1 1 2 2 3 2 2 2 2 3 2 2 1 2 2 2 2 2 2 1 0 2 2 1 1 1 1 1 2 5 5 6 7 7 8 8 8 8 8 8 8 9 9
0 1 1 1 2 2 2 2 3 2 2 2 2 1 1 2 2 3 3 2 1 1 2 2 1 0 1 1 1 3 4 5 6 7 7 8 8 8 8 8 9 9 9
2 2 2 2 2 2 2 2 2 2 2 2 2 2 1 1 2 3 4 4 2 2 2 2 1 1 0 0 1 2 2 5 6 6 7 7 8 8 8 9 9 9 9
2 2 2 2 2 2 3 3 2 1 2 1 2 2 1 0 1 1 2 4 4 2 1 2 1 1 0 1 1 1 2 4 6 6 7 7 8 8 8 9 9 9 9
2 2 2 2 2 2 3 3 2 1 2 1 1 2 1 1 1 1 2 2 3 4 2 1 1 1 0 1 2 2 2 4 5 5 6 7 7 8 8 9 10 10 9
3 3 3 3 2 2 2 3 2 2 2 1 1 2 2 1 2 1 2 2 2 3 3 1 1 1 2 1 2 1 2 2 2 5 5 6 6 7 7 8 8 9 9
2 3 3 3 3 3 3 3 3 3 3 2 1 2 1 2 2 1 2 2 2 2 3 2 0 1 1 1 1 2 1 1 1 3 4 5 5 6 6 7 7 8 8
2 2 2 3 3 3 3 3 3 3 3 2 2 2 2 3 2 1 2 2 2 2 2 3 1 0 1 1 2 2 2 2 1 2 3 3 4 4 5 5 6 6 7
2 2 2 3 3 3 3 3 4 3 3 2 2 2 2 3 3 2 2 2 3 3 3 3 2 1 0 1 1 1 1 1 1 2 2 3 3 3 3 3 4 5 5
2 2 2 2 2 3 3 4 4 4 3 2 2 2 2 3 4 3 3 3 3 3 3 2 2 1 0 0 1 1 1 0 1 1 1 1 1 1 1 1 2 3 4
1 2 2 2 2 2 5 7 6 4 4 3 2 1 2 2 4 5 5 5 6 5 4 3 2 2 2 2 2 1 1 1 1 1 1 1 1 1 1 1 2 2 3
2 2 2 2 2 3 6 7 8 5 4 3 3 2 2 2 3 2 3 4 4 6 7 6 4 4 3 3 3 2 2 3 2 1 1 1 1 1 1 1 2 2 2
2 2 2 2 2 3 6 7 7 5 3 3 3 3 3 2 3 3 3 2 1 1 3 3 4 4 3 3 4 4 4 2 0 0 2 1 1 1 1 1 2 2 2
2 2 2 3 3 3 6 7 7 3 2 2 2 3 4 3 6 6 4 3 1 1 1 3 3 3 3 3 4 3 2 2 1 1 1 1 1 1 1 2 2 3 3
3 2 2 2 3 3 5 7 8 4 3 1 1 2 4 5 6 7 4 4 4 3 2 1 1 0 0 0 2 3 4 3 2 1 1 2 1 1 1 2 2 2 2
Wind_Direction
127 115 88 80 79 78 82 79 78 78 76 73 78 82 77 70 60 47 37 62 72 72 72 72 69 66 68 68 67 64 61 58 59 59 60 60 65 76 81 79 76 73 70
127 116 100 89 87 90 90 93 93 86 78 79 76 72 75 69 63 61 42 42 59 66 68 71 69 69 70 71 69 66 62 58 57 57 56 55 56 69 77 75 71 69 67
119 113 109 103 103 100 93 87 82 81 81 75 67 60 62 61 63 61 53 38 32 51 61 65 68 71 72 71 69 67 65 63 61 58 55 54 55 64 72 71 67 67 68
116 111 109 110 110 99 93 91 85 82 70 63 58 52 52 52 56 56 56 49 37 42 51 61 64 69 73 71 69 68 68 66 62 59 56 56 56 62 67 66 64 64 63
109 110 112 116 112 98 93 99 82 90 83 70 66 54 41 45 50 62 53 47 49 52 46 56 60 61 66 67 69 69 68 65 63 61 60 58 58 61 65 64 63 61 60
107 107 113 114 113 106 94 96 97 83 95 91 79 58 36 37 43 49 48 44 48 58 56 53 48 51 56 61 66 68 67 66 63 60 58 57 57 58 60 61 62 61 61
111 109 113 112 116 119 127 124 109 90 73 87 77 44 23 33 40 38 42 50 49 54 61 57 53 47 42 49 54 61 62 63 63 59 56 55 55 57 57 58 60 61 63
115 128 128 127 128 119 115 119 118 109 87 93 111 93 32 10 8 21 27 54 53 54 61 64 62 59 50 40 46 55 55 56 60 59 57 55 55 59 58 57 57 57 58
108 126 140 139 142 138 146 151 143 137 138 37 118 135 134 178 334 351 13 30 41 55 55 61 67 64 65 51 41 47 53 50 54 57 57 55 55 58 58 55 55 55 54
105 120 135 141 145 142 148 164 149 144 136 145 357 68 145 151 140 37 350 4 27 47 57 75 69 63 64 57 55 56 54 47 49 53 53 52 53 55 54 52 51 53 55
62 113 128 135 140 142 156 154 136 132 137 150 166 135 87 78 106 130 134 344 5 3 19 58 80 69 59 64 63 62 59 50 48 48 48 48 50 51 50 49 47 48 51
359 91 127 133 140 140 152 155 144 135 138 136 138 132 139 136 148 135 144 160 359 330 359 19 56 75 72 69 79 76 67 56 51 49 46 45 46 45 45 45 45 45 47
242 232 161 149 150 152 152 143 130 132 137 134 146 144 144 159 154 140 131 142 125 319 350 359 343 36 101 77 65 85 72 62 54 53 51 49 48 47 46 46 46 47 45
216 204 176 171 172 156 143 135 127 139 133 139 143 142 132 162 150 147 148 142 112 15 358 314 339 338 13 83 70 90 74 75 66 62 58 54 53 52 51 48 47 46 45
207 187 167 164 174 157 145 133 122 138 128 135 144 137 123 139 133 148 145 147 144 146 279 291 315 319 300 94 77 87 80 81 77 71 66 62 61 58 55 50 47 46 43
193 165 159 161 165 160 150 134 130 132 118 118 125 112 91 72 84 111 137 138 140 146 167 257 262 285 110 108 106 87 80 86 78 76 73 71 67 62 60 57 54 49 45
179 168 171 167 158 154 149 140 148 136 125 111 100 109 102 89 82 74 94 104 111 123 140 243 340 8 61 60 47 61 67 52 60 78 78 75 71 69 65 61 57 53 49
175 166 158 156 156 153 146 143 145 134 135 136 134 117 113 99 83 83 97 102 109 121 137 148 21 24 43 50 75 75 63 71 71 79 81 80 78 78 72 66 61 56 51
152 148 142 151 160 154 145 149 148 143 142 145 142 139 146 122 109 100 105 110 112 105 106 128 134 24 25 37 59 48 47 29 57 69 75 76 81 79 80 71 63 57 51
151 156 158 167 170 159 151 149 143 138 135 133 139 148 152 150 159 150 134 138 128 112 105 107 104 60 27 4 77 83 35 25 33 35 43 58 70 67 63 66 61 53 45
168 163 153 159 163 159 161 155 149 144 138 134 131 145 150 147 150 149 145 152 142 131 122 116 118 92 42 81 209 210 175 154 13 23 43 27 32 18 360 20 46 39 33
155 145 148 155 161 174 162 160 153 149 148 147 149 156 143 134 128 127 130 143 151 152 158 152 153 163 211 211 201 168 152 123 299 309 109 340 45 332 302 302 9 23 20
157 159 170 162 175 180 161 154 157 149 152 161 168 166 156 146 139 121 113 114 131 151 162 164 168 194 201 202 170 161 171 171 205 230 122 316 334 303 292 340 1 7 13
170 184 187 186 184 186 168 158 154 150 151 170 174 173 169 177 166 153 139 124 134 178 182 176 185 198 192 185 178 183 186 163 84 28 121 181 282 280 311 307 340 353 351
184 198 192 182 182 193 172 166 153 138 143 181 193 181 176 185 181 166 150 156 174 229 143 153 158 160 162 164 151 121 121 132 223 260 174 156 228 273 306 295 310 334 340
190 190 201 200 194 201 184 177 164 149 151 174 205 202 189 186 187 174 170 171 183 214 177 137 135 63 337 106 143 163 168 166 177 240 222 157 180 128 307 297 310 319 324